TimeEDT,TemperatureF,Dew PointF,Humidity,Sea Level PressureIn,VisibilityMPH,Wind Direction,Wind SpeedMPH,Gust SpeedMPH,PrecipitationIn,Events,Conditions,WindDirDegrees,DateUTC
12:02 AM,44.6,44.6,100,29.68,4.0,Calm,Calm,-,N/A,,Overcast,0,2013-04-01 04:02:00
12:53 AM,45.0,44.1,97,29.69,4.0,Calm,Calm,-,N/A,,Overcast,0,2013-04-01 04:53:00
1:22 AM,44.6,42.8,93,29.68,2.5,Calm,Calm,-,N/A,,Mostly Cloudy,0,2013-04-01 05:22:00
1:25 AM,42.8,42.8,100,29.68,0.8,Calm,Calm,-,N/A,,Mostly Cloudy,0,2013-04-01 05:25:00
1:29 AM,42.8,42.8,100,29.67,0.2,Calm,Calm,-,N/A,Fog,Fog,0,2013-04-01 05:29:00
1:41 AM,41.0,41.0,100,29.68,0.2,Calm,Calm,-,N/A,Fog,Fog,0,2013-04-01 05:41:00
1:53 AM,39.9,39.9,100,29.69,0.5,South,3.5,-,N/A,Fog,Fog,190,2013-04-01 05:53:00
2:15 AM,42.8,42.8,100,29.69,2.0,SSW,3.5,-,N/A,,Overcast,210,2013-04-01 06:15:00
2:22 AM,42.8,42.8,100,29.69,6.0,Calm,Calm,-,N/A,,Overcast,0,2013-04-01 06:22:00
2:53 AM,44.1,43.0,96,29.70,9.0,Variable,3.5,-,N/A,,Overcast,0,2013-04-01 06:53:00
3:23 AM,44.6,42.8,93,29.69,10.0,Calm,Calm,-,N/A,,Scattered Clouds,0,2013-04-01 07:23:00
3:37 AM,42.8,42.8,100,29.69,1.5,Calm,Calm,-,N/A,,Clear,0,2013-04-01 07:37:00
3:43 AM,42.8,41.0,93,29.69,0.5,Calm,Calm,-,N/A,Fog,Fog,0,2013-04-01 07:43:00
3:50 AM,41.0,39.2,93,29.69,0.2,Calm,Calm,-,N/A,Fog,Fog,0,2013-04-01 07:50:00
3:53 AM,41.0,39.9,96,29.70,0.5,Calm,Calm,-,N/A,Fog,Fog,0,2013-04-01 07:53:00
4:03 AM,42.8,41.0,93,29.69,1.5,Calm,Calm,-,N/A,,Partly Cloudy,0,2013-04-01 08:03:00
4:12 AM,39.2,39.2,100,29.69,0.8,Calm,Calm,-,N/A,,Mist,0,2013-04-01 08:12:00
4:28 AM,39.2,39.2,100,29.70,1.2,Calm,Calm,-,N/A,,Partly Cloudy,0,2013-04-01 08:28:00
4:53 AM,41.0,39.9,96,29.71,1.5,Calm,Calm,-,N/A,,Partly Cloudy,0,2013-04-01 08:53:00
5:11 AM,42.8,41.0,93,29.70,3.0,Variable,3.5,-,N/A,,Scattered Clouds,0,2013-04-01 09:11:00
5:53 AM,39.2,39.2,100,29.70,1.8,Calm,Calm,-,N/A,,Scattered Clouds,0,2013-04-01 09:53:00
6:04 AM,39.2,39.2,100,29.71,0.8,Calm,Calm,-,N/A,,Mist,0,2013-04-01 10:04:00
6:16 AM,39.2,37.4,93,29.70,0.2,Calm,Calm,-,N/A,Fog,Fog,0,2013-04-01 10:16:00
6:34 AM,37.4,37.4,100,29.70,0.2,Calm,Calm,-,N/A,Fog,Fog,0,2013-04-01 10:34:00
6:53 AM,37.9,37.0,97,29.70,0.2,South,3.5,-,N/A,Fog,Fog,180,2013-04-01 10:53:00
7:06 AM,39.2,39.2,100,29.70,0.5,Calm,Calm,-,N/A,Fog,Fog,0,2013-04-01 11:06:00
7:11 AM,39.2,39.2,100,29.70,0.2,Calm,Calm,-,N/A,Fog,Fog,0,2013-04-01 11:11:00
7:21 AM,39.2,39.2,100,29.70,0.8,Calm,Calm,-,N/A,,Mostly Cloudy,0,2013-04-01 11:21:00
7:32 AM,41.0,41.0,100,29.71,1.2,Calm,Calm,-,N/A,,Scattered Clouds,0,2013-04-01 11:32:00
7:51 AM,42.8,42.8,100,29.70,1.0,South,3.5,-,N/A,,Mist,170,2013-04-01 11:51:00
7:53 AM,42.8,42.8,100,29.70,1.0,South,4.6,-,N/A,,Mist,170,2013-04-01 11:53:00
8:25 AM,44.6,44.6,100,29.70,2.0,South,3.5,-,N/A,,Overcast,180,2013-04-01 12:25:00
8:53 AM,45.0,44.1,97,29.70,2.5,South,4.6,-,N/A,,Mostly Cloudy,190,2013-04-01 12:53:00
9:07 AM,46.4,44.6,93,29.70,3.0,South,4.6,-,N/A,,Mostly Cloudy,170,2013-04-01 13:07:00
9:42 AM,48.2,46.4,93,29.68,5.0,South,3.5,-,N/A,,Scattered Clouds,180,2013-04-01 13:42:00
9:53 AM,50.0,46.0,86,29.70,5.0,Variable,4.6,-,N/A,,Clear,0,2013-04-01 13:53:00
10:53 AM,55.0,43.0,64,29.68,10.0,Variable,5.8,-,N/A,,Clear,0,2013-04-01 14:53:00
11:53 AM,60.1,43.0,53,29.66,10.0,West,11.5,19.6,N/A,,Clear,270,2013-04-01 15:53:00
12:53 PM,60.1,37.0,42,29.64,10.0,West,12.7,20.7,N/A,,Mostly Cloudy,280,2013-04-01 16:53:00
1:53 PM,61.0,39.0,44,29.64,10.0,West,13.8,24.2,N/A,,Partly Cloudy,280,2013-04-01 17:53:00
2:53 PM,57.2,37.4,48,29.65,10.0,WNW,16.1,23.0,N/A,,Mostly Cloudy,300,2013-04-01 18:53:00
3:53 PM,53.6,35.6,51,29.68,10.0,WNW,9.2,23.0,N/A,,Mostly Cloudy,290,2013-04-01 19:53:00
4:53 PM,50.0,35.1,57,29.71,10.0,Variable,3.5,-,0.00,,Overcast,0,2013-04-01 20:53:00
5:53 PM,53.1,25.0,34,29.72,10.0,NW,13.8,23.0,0.00,,Scattered Clouds,310,2013-04-01 21:53:00
6:53 PM,50.0,19.4,30,29.74,10.0,WNW,10.4,27.6,N/A,,Unknown,290,2013-04-01 22:53:00
7:53 PM,46.9,16.0,29,29.78,10.0,WNW,5.8,-,N/A,,Clear,300,2013-04-01 23:53:00
8:53 PM,44.1,16.0,32,29.84,10.0,NNW,13.8,21.9,N/A,,Clear,340,2013-04-02 00:53:00
9:53 PM,41.0,10.9,29,29.88,10.0,NNW,13.8,23.0,N/A,,Clear,330,2013-04-02 01:53:00
10:53 PM,39.0,9.0,29,29.91,10.0,NW,9.2,19.6,N/A,,Clear,320,2013-04-02 02:53:00
11:53 PM,37.0,10.0,33,29.92,10.0,NNW,6.9,-,N/A,,Clear,330,2013-04-02 03:53:00